Regional Weather Roundup
Issued by NWS Nashville, TN

Home | Current Version | Previous Version | Text Only | Print | Product List | Glossary On
Versions: 1 2 3 4 5 6 7 8 9 10 11 12 13 14 15 16 17 18 19 20 21 22 23 24 25 26 27 28 29 30 31 32 33 34 35 36 37 38 39 40 41 42 43 44 45 46 47 48 49 50
000
ASUS44 KOHX 180610
RWROHX
MIDDLE TENNESSEE HOURLY WEATHER ROUNDUP
NATIONAL WEATHER SERVICE NASHVILLE TN
100 AM CDT FRI AUG 18 2017

NOTE: "FAIR" INDICATES FEW OR NO CLOUDS BELOW 12,000 FEET WITH
NO SIGNIFICANT WEATHER AND/OR OBSTRUCTIONS TO VISIBILITY.

* THESE REPORTS ARE NOT UNDER NWS QUALITY CONTROL AND MAY NOT
  REPORT WEATHER SUCH AS PRECIPITATION AND FOG.


TNZ005>011-023>034-057-059-062>066-078-080-180700
...NORTHERN MIDDLE TENNESSEE...

CITY           SKY/WX    TMP DP  RH WIND       PRES   REMARKS
CLARKSVILLE    PTCLDY    76  74  93 SW5       29.92S
CROSSVILLE     MOCLDY    74  70  87 VRB6      30.02F
GALLATIN       CLOUDY    77  75  94 VRB3      29.95S
DICKSON          N/A     73  73 100 W8        29.95S
LEBANON        CLOUDY    76  73  90 SW8       29.93S
NASHVILLE      CLOUDY    77  73  87 S7        29.95R
PORTLAND       CLOUDY    75  75 100 SW5       29.92S
SMYRNA         CLOUDY    77  74  90 SW7       29.95F
SPARTA         CLOUDY    73  72  94 SW9G16    29.97R FOG
SPRINGFIELD    CLOUDY    75  75 100 SW9       29.91S
WEST NASHVILLE CLOUDY    77  73  88 SW8       29.92S
$$
TNZ056-058-060-061-075>077-079-093>097-180700
...SOUTHERN MIDDLE TENNESSEE...

CITY           SKY/WX    TMP DP  RH WIND       PRES   REMARKS
COLUMBIA       CLOUDY    75  75 100 SW7       29.94S
FAYETTEVILLE   CLOUDY    77  75  94 CALM      29.98S
MCMINNVILLE    MOCLDY    73  73 100 SW3       29.98R
MURFREESBORO   CLOUDY    77  75  93 SW7       29.94F
PULASKI        CLOUDY    77  75  94 SW5       29.96F
SHELBYVILLE    CLOUDY    75  73  94 W3        29.97S
TULLAHOMA      CLOUDY    73  72  94 SW5       30.00S
WINCHESTER     CLOUDY    77  73  88 W5        29.99S
$$


...KEY TO REMARKS...
VSB - VISIBILITY IN MILES
WCI - WIND CHILL INDEX
HX  - HEAT INDEX




USA.gov is the U.S. government's official web portal to all federal, state and local government web resources and services.